FW5145 Weather Reports


time (UTC)temp
C
wind
direction
speed
KPH
gust
KPH
rain 1hr
cm
rain 24hr
cm
rain mn
cm
humidity
%
barometer
mb
20260505221543 10 14 3.2 12.9 0.00 0.00 0.00 100 1012.9
20260505221031 10 360 1.6 6.4 0.00 0.00 0.00 100 1012.8
20260505220532 11 30 1.6 8.0 0.00 0.00 0.00 100 1012.8
20260505220043 11 5 1.6 9.7 0.00 0.00 0.00 100 1012.7
20260505215534 11 39 3.2 9.7 0.00 0.00 0.00 100 1012.8
20260505215032 11 89 1.6 11.3 0.00 0.00 0.00 100 1012.8
20260505214552 11 32 3.2 12.9 0.00 0.00 0.00 100 1012.8
20260505214035 11 57 4.8 12.9 0.00 0.00 0.00 100 1012.8
20260505213533 11 17 1.6 11.3 0.00 0.00 0.00 100 1012.8
20260505213045 11 46 1.6 11.3 0.00 0.00 0.00 100 1012.8
20260505212533 11 33 1.6 8.0 0.00 0.00 0.00 100 1012.8
20260505212036 11 42 1.6 8.0 0.00 0.00 0.00 100 1012.9
20260505211549 11 28 3.2 8.0 0.00 0.00 0.00 100 1012.9
20260505211034 11 23 3.2 8.0 0.00 0.00 0.00 100 1012.8
20260505210533 11 58 3.2 8.0 0.00 0.00 0.00 100 1012.7
20260505210042 11 96 1.6 9.7 0.00 0.00 0.00 100 1012.8
20260505205532 11 44 3.2 11.3 0.00 0.00 0.00 100 1012.8
20260505205032 11 36 1.6 14.5 0.00 0.00 0.00 100 1012.7
20260505204542 11 45 3.2 14.5 0.00 0.00 0.00 100 1012.7
20260505204033 11 42 4.8 14.5 0.00 0.00 0.00 100 1012.7
20260505203532 11 37 1.6 8.0 0.00 0.00 0.00 100 1012.7
20260505203051 11 49 1.6 8.0 0.00 0.00 0.00 100 1012.7
20260505202532 11 57 3.2 8.0 0.00 0.00 0.00 100 1012.6
20260505202031 12 11 3.2 8.0 0.00 0.00 0.00 100 1012.4
20260505201545 12 62 1.6 9.7 0.00 0.00 0.00 100 1012.4
20260505201032 12 46 1.6 9.7 0.00 0.00 0.00 100 1012.3
20260505200534 12 352 1.6 8.0 0.00 0.00 0.00 100 1012.4
20260505200045 12 51 3.2 9.7 0.00 0.00 0.00 100 1012.3
20260505195534 12 34 1.6 9.7 0.00 0.00 0.00 100 1012.3
20260505195033 12 36 1.6 14.5 0.00 0.00 0.00 100 1012.2
20260505194545 12 61 3.2 14.5 0.00 0.00 0.00 100 1012.1
20260505194034 12 24 3.2 8.0 0.00 0.00 0.00 100 1012.0
20260505193532 12 32 3.2 8.0 0.00 0.00 0.00 100 1012.0
20260505193042 12 82 1.6 6.4 0.00 0.00 0.00 100 1011.8
20260505192535 12 53 1.6 6.4 0.00 0.00 0.00 100 1011.8
20260505192032 12 67 1.6 8.0 0.00 0.00 0.00 100 1011.8
20260505191546 13 34 1.6 8.0 0.00 0.00 0.00 100 1011.6
20260505191032 13 57 3.2 8.0 0.00 0.00 0.00 100 1011.6
20260505190532 13 58 1.6 4.8 0.00 0.00 0.00 100 1011.6
20260505190049 13 67 1.6 4.8 0.00 0.00 0.00 100 1011.7
20260505185534 13 11 0.0 6.4 0.00 0.00 0.00 100 1011.7
20260505185032 13 0 1.6 6.4 0.00 0.00 0.00 100 1011.6
20260505184546 13 55 1.6 6.4 0.00 0.00 0.00 100 1011.5
20260505184032 13 55 3.2 6.4 0.00 0.00 0.00 100 1011.4
20260505183534 13 53 1.6 9.7 0.00 0.00 0.00 100 1011.5
20260505183047 13 90 1.6 9.7 0.00 0.00 0.00 100 1011.5
20260505182535 13 0 1.6 9.7 0.00 0.00 0.00 100 1011.6
20260505182031 13 30 3.2 8.0 0.00 0.00 0.00 100 1011.5
20260505181549 13 0 1.6 6.4 0.00 0.00 0.00 100 1011.5
20260505181037 13 81 1.6 8.0 0.00 0.00 0.00 100 1011.6
20260505180536 13 78 3.2 8.0 0.00 0.00 0.00 100 1011.7
20260505180046 13 19 1.6 8.0 0.00 0.00 0.00 100 1011.7
20260505175532 13 66 3.2 8.0 0.00 0.00 0.00 100 1011.7
20260505175033 13 18 1.6 11.3 0.00 0.00 0.00 100 1011.7
20260505174537 13 0 1.6 11.3 0.00 0.00 0.00 100 1011.6
20260505174032 14 27 3.2 9.7 0.00 0.00 0.00 100 1011.6
20260505173533 14 58 3.2 8.0 0.00 0.00 0.00 100 1011.7
20260505173042 14 55 1.6 8.0 0.00 0.00 0.00 100 1011.7
20260505172531 14 69 1.6 8.0 0.00 0.00 0.00 100 1011.6
20260505172033 14 13 3.2 14.5 0.00 0.00 0.00 100 1011.6
20260505171543 14 55 3.2 14.5 0.00 0.00 0.00 100 1011.6
20260505171032 14 36 3.2 14.5 0.00 0.00 0.00 100 1011.7
20260505170532 14 59 3.2 14.5 0.00 0.00 0.00 100 1011.6
20260505170043 15 13 3.2 16.1 0.00 0.00 0.00 100 1011.7
20260505165532 15 22 1.6 16.1 0.00 0.00 0.00 100 1011.7
20260505165034 15 49 3.2 11.3 0.00 0.00 0.00 100 1011.6
20260505164542 15 26 1.6 11.3 0.00 0.00 0.00 100 1011.5
20260505164033 15 11 3.2 11.3 0.00 0.00 0.00 100 1011.6
20260505163532 15 5 3.2 9.7 0.00 0.00 0.00 100 1011.4
20260505163044 15 30 1.6 12.9 0.00 0.00 0.00 100 1011.5
20260505162536 15 34 3.2 12.9 0.00 0.00 0.00 100 1011.7
20260505162032 15 46 4.8 11.3 0.00 0.00 0.00 100 1011.6
20260505161544 15 5 1.6 9.7 0.00 0.00 0.00 100 1011.6
20260505161036 15 22 3.2 9.7 0.00 0.00 0.00 100 1011.6
20260505160532 15 51 3.2 9.7 0.00 0.00 0.00 100 1011.6
20260505153053 15 43 6.4 14.5 0.00 0.00 0.00 100 1011.7
20260505152533 15 360 4.8 14.5 0.00 0.00 0.00 100 1011.7
20260505152033 15 5 4.8 11.3 0.00 0.00 0.00 100 1011.6
20260505151544 15 28 4.8 12.9 0.00 0.00 0.00 100 1011.7
20260505151032 16 61 3.2 12.9 0.00 0.00 0.00 100 1011.8
20260505150532 16 21 3.2 12.9 0.00 0.00 0.00 100 1011.7
20260505140532 16 36 6.4 19.3 0.00 0.00 0.00 100 1012.0
20260505125032 15 92 4.8 20.9 0.00 0.00 0.00 100 1012.2
20260505124551 15 5 11.3 20.9 0.00 0.00 0.00 100 1012.2
20260505124033 16 115 3.2 17.7 0.00 0.00 0.00 100 1012.1
20260505123531 15 27 6.4 17.7 0.00 0.00 0.00 100 1012.1
20260505123046 15 360 3.2 14.5 0.00 0.00 0.00 100 1012.2
20260505122533 15 37 4.8 14.5 0.00 0.00 0.00 100 1012.2
20260505122031 15 47 4.8 11.3 0.00 0.00 0.00 100 1012.2
20260505121550 15 0 3.2 11.3 0.00 0.00 0.00 100 1012.2
20260505121033 15 21 1.6 11.3 0.00 0.00 0.00 100 1012.1
20260505120535 15 360 3.2 14.5 0.00 0.00 0.00 100 1012.3
20260505120105 14 31 4.8 14.5 0.00 0.00 0.00 100 1012.3
20260505115533 15 0 4.8 14.5 0.00 0.00 0.00 100 1012.4
20260505115032 15 94 4.8 14.5 0.00 0.00 0.00 100 1012.3
20260505114543 15 0 4.8 16.1 0.00 0.00 0.00 100 1012.3
20260505114032 15 90 3.2 16.1 0.00 0.00 0.00 100 1012.4
20260505113533 15 21 4.8 16.1 0.00 0.00 0.00 100 1012.4
20260505113044 15 28 3.2 12.9 0.00 0.00 0.00 100 1012.5
20260505112532 14 55 4.8 22.5 0.00 0.00 0.00 100 1012.5
20260505112033 14 29 6.4 22.5 0.00 0.00 0.00 100 1012.5
20260505111544 14 37 6.4 16.1 0.00 0.00 0.00 100 1012.5
20260505111033 14 30 4.8 19.3 0.00 0.00 0.00 100 1012.6
20260505110532 14 31 8.0 19.3 0.00 0.00 0.00 100 1012.6
20260505102033 13 142 6.4 19.3 0.00 0.00 0.00 100 1012.7
20260505101545 13 51 6.4 19.3 0.00 0.00 0.00 100 1012.7
20260505101032 13 10 3.2 14.5 0.00 0.00 0.00 100 1012.7
20260505100532 13 360 4.8 14.5 0.00 0.00 0.00 100 1012.8
20260505100038 13 65 3.2 16.1 0.00 0.00 0.00 100 1012.9
20260505095532 12 11 6.4 16.1 0.00 0.00 0.00 100 1012.9
20260505095034 12 360 3.2 17.7 0.00 0.00 0.00 100 1013.0
20260505094550 12 28 6.4 17.7 0.00 0.00 0.00 100 1013.0
20260505094034 12 360 4.8 12.9 0.00 0.00 0.00 100 1013.0
20260505093532 12 11 4.8 12.9 0.00 0.00 0.00 100 1013.1
20260505093052 12 88 4.8 16.1 0.00 0.00 0.00 100 1013.1
20260505092534 12 39 6.4 16.1 0.00 0.00 0.00 100 1013.2
20260505092033 12 39 4.8 16.1 0.00 0.00 0.00 100 1013.1
20260505091543 12 349 6.4 16.1 0.00 0.00 0.00 100 1013.1
20260505091035 12 13 6.4 14.5 0.00 0.00 0.00 100 1013.2
20260505090532 12 15 4.8 16.1 0.00 0.00 0.00 100 1013.1
20260505090056 12 350 4.8 16.1 0.00 0.00 0.00 100 1013.2
20260505085537 12 17 8.0 16.1 0.00 0.00 0.00 100 1013.2
20260505085033 12 49 4.8 16.1 0.00 0.00 0.00 100 1013.2
20260505084538 12 72 6.4 24.1 0.00 0.00 0.00 100 1013.2
20260505084033 12 32 8.0 24.1 0.00 0.00 0.00 100 1013.2
20260505083534 12 5 8.0 17.7 0.00 0.00 0.00 100 1013.2
20260505083101 11 81 4.8 17.7 0.00 0.00 0.00 100 1013.2
20260505082530 11 24 4.8 17.7 0.00 0.00 0.00 100 1013.2
20260505082031 11 17 4.8 17.7 0.00 0.00 0.00 100 1013.3
20260505081544 11 30 8.0 17.7 0.00 0.00 0.00 100 1013.2
20260505081034 12 55 6.4 16.1 0.00 0.00 0.00 100 1013.3
20260505080533 12 40 6.4 16.1 0.00 0.00 0.00 100 1013.3
20260505080044 12 58 4.8 14.5 0.00 0.00 0.00 100 1013.3
20260505075532 11 5 6.4 16.1 0.00 0.00 0.00 100 1013.2
20260505075033 11 17 4.8 16.1 0.00 0.00 0.00 100 1013.2
20260505074542 11 30 6.4 16.1 0.00 0.00 0.00 100 1013.2
20260505074033 11 20 4.8 16.1 0.00 0.00 0.00 100 1013.3
20260505073532 11 5 1.6 16.1 0.00 0.00 0.00 100 1013.2
20260505073042 11 17 6.4 16.1 0.00 0.00 0.00 100 1013.2
20260505072532 11 13 6.4 17.7 0.00 0.00 0.00 100 1013.2
20260505072033 11 30 6.4 20.9 0.00 0.00 0.00 100 1013.1
20260505071544 11 360 4.8 20.9 0.00 0.00 0.00 100 1013.2
20260505071033 11 39 6.4 20.9 0.00 0.00 0.00 100 1013.1
20260505070532 11 352 6.4 16.1 0.00 0.00 0.00 100 1013.3
20260505070048 11 58 6.4 16.1 0.00 0.00 0.00 100 1013.2
20260505065533 11 69 6.4 16.1 0.00 0.00 0.00 100 1013.2
20260505065031 11 15 4.8 12.9 0.00 0.00 0.00 100 1013.3
20260505064537 11 59 1.6 12.9 0.00 0.00 0.00 100 1013.4
20260505064032 11 64 3.2 12.9 0.00 0.00 0.00 100 1013.4
20260505063533 10 27 3.2 16.1 0.00 0.00 0.00 100 1013.4
20260505063043 10 360 4.8 16.1 0.00 0.00 0.00 100 1013.5
20260505062532 10 34 6.4 14.5 0.00 0.00 0.00 100 1013.4
20260505062032 10 360 3.2 14.5 0.00 0.00 0.00 100 1013.4
20260505061608 10 32 4.8 14.5 0.00 0.00 0.00 100 1013.4
20260505061034 10 61 1.6 12.9 0.00 0.00 0.00 100 1013.4
20260505060533 10 13 4.8 11.3 0.00 0.00 0.00 100 1013.4
20260505060044 10 21 3.2 11.3 0.00 0.00 0.00 100 1013.3
20260505055532 10 5 3.2 11.3 0.00 0.00 0.00 100 1013.3
20260505055032 10 22 3.2 9.7 0.00 0.00 0.00 100 1013.3
20260505054545 10 11 1.6 8.0 0.00 0.00 0.00 100 1013.2
20260505054032 10 360 3.2 8.0 0.00 0.00 0.00 100 1013.4
20260505053532 10 11 1.6 8.0 0.00 0.00 0.00 100 1013.4
20260505053045 9 27 1.6 9.7 0.00 0.00 0.00 100 1013.3
20260505052535 9 74 1.6 9.7 0.00 0.00 0.00 100 1013.3
20260505052035 9 34 3.2 9.7 0.00 0.00 0.00 100 1013.4
20260505051549 10 5 3.2 9.7 0.00 0.00 0.00 100 1013.4
20260505051035 9 13 3.2 11.3 0.00 0.00 0.00 100 1013.4
20260505050533 9 360 3.2 11.3 0.00 0.00 0.00 100 1013.3
20260505041541 10 0 0.0 4.8 0.00 0.00 0.00 100 1013.6
20260505041034 10 24 0.0 4.8 0.00 0.00 0.00 100 1013.7
20260505040534 10 0 0.0 4.8 0.00 0.00 0.00 100 1013.7
20260505040058 10 0 0.0 4.8 0.00 0.00 0.00 100 1013.7
20260505035534 10 32 0.0 6.4 0.00 0.00 0.00 100 1013.7
20260505035035 10 0 1.6 6.4 0.00 0.00 0.00 100 1013.7
20260505034544 10 0 1.6 6.4 0.00 0.00 0.00 100 1013.8
20260505034033 10 17 1.6 6.4 0.00 0.00 0.00 100 1013.8
20260505033533 10 44 1.6 4.8 0.00 0.00 0.00 100 1013.8
20260505033045 10 36 0.0 4.8 0.00 0.00 0.00 100 1013.9
20260505032534 10 42 0.0 3.2 0.00 0.00 0.00 100 1013.9
20260505032036 10 0 0.0 4.8 0.00 0.00 0.00 100 1013.9
20260505031550 10 0 0.0 4.8 0.00 0.00 0.00 100 1013.9
20260505031032 10 40 0.0 6.4 0.00 0.00 0.00 100 1013.9
20260505030532 10 64 0.0 6.4 0.00 0.00 0.00 100 1013.9
20260505030044 10 40 0.0 4.8 0.00 0.00 0.00 100 1013.8
20260505025533 10 0 0.0 4.8 0.00 0.00 0.00 100 1013.9
20260505025035 10 0 0.0 4.8 0.00 0.00 0.00 100 1013.9
20260505024542 10 0 0.0 8.0 0.00 0.00 0.00 100 1014.0
20260505024035 10 66 0.0 8.0 0.00 0.00 0.00 100 1014.0
20260505023532 10 56 1.6 8.0 0.00 0.00 0.00 100 1014.0
20260505023042 10 0 0.0 6.4 0.00 0.00 0.00 100 1014.1
20260505022531 10 44 1.6 8.0 0.00 0.00 0.00 100 1014.0
20260505022032 10 21 1.6 8.0 0.00 0.00 0.00 100 1014.1
20260505021544 10 51 1.6 8.0 0.00 0.00 0.00 100 1014.0
20260505021033 10 0 1.6 6.4 0.00 0.00 0.00 100 1014.2
20260505020532 10 55 0.0 6.4 0.00 0.00 0.00 100 1014.1
20260505020044 10 37 1.6 6.4 0.00 0.00 0.00 100 1014.1
20260505015533 10 52 1.6 6.4 0.00 0.00 0.00 100 1014.1
20260505015031 10 72 0.0 3.2 0.00 0.00 0.00 100 1014.2
20260505014543 10 0 0.0 4.8 0.00 0.00 0.00 100 1014.2
20260505014034 10 63 0.0 6.4 0.00 0.00 0.00 100 1014.1
20260505013531 10 0 0.0 6.4 0.00 0.00 0.00 100 1014.3
20260505013042 10 0 0.0 6.4 0.00 0.00 0.00 100 1014.4
20260505012531 10 31 0.0 6.4 0.00 0.00 0.00 100 1014.2
20260505012035 10 0 1.6 6.4 0.00 0.00 0.00 100 1014.2
20260505011545 10 19 1.6 6.4 0.00 0.00 0.00 100 1014.1
20260505011032 10 60 1.6 6.4 0.00 0.00 0.00 100 1014.1
20260505010531 10 61 1.6 4.8 0.00 0.00 0.00 100 1014.4
20260505010055 10 44 0.0 6.4 0.00 0.00 0.00 100 1014.5
20260505005532 10 32 0.0 6.4 0.00 0.00 0.00 100 1014.4
20260505005031 10 57 1.6 6.4 0.00 0.00 0.00 100 1014.5
20260505004544 10 46 0.0 4.8 0.00 0.00 0.00 100 1014.5
20260505004033 10 0 1.6 4.8 0.00 0.00 0.00 100 1014.6
20260505003533 10 0 0.0 4.8 0.00 0.00 0.00 100 1014.6
20260505003043 11 24 0.0 4.8 0.00 0.00 0.00 100 1014.5
20260505002532 11 56 0.0 9.7 0.00 0.00 0.00 100 1014.7
20260505002032 11 0 0.0 9.7 0.00 0.00 0.00 100 1014.8
20260505001542 11 17 3.2 9.7 0.00 0.00 0.00 100 1014.7
20260505001031 11 39 1.6 11.3 0.00 0.00 0.00 100 1014.6
20260505000529 11 65 1.6 14.5 0.00 0.00 0.00 100 1014.8
20260505000049 11 46 1.6 14.5 0.00 0.00 0.00 100 1014.7
20260504235534 11 26 1.6 14.5 0.00 0.00 0.00 100 1014.7
20260504235032 11 41 1.6 11.3 0.00 0.00 0.00 100 1014.7
20260504234538 11 77 0.0 11.3 0.00 0.00 0.00 100 1014.7
20260504234032 11 84 1.6 9.7 0.00 0.00 0.00 100 1014.6
20260504233532 11 31 1.6 6.4 0.00 0.00 0.00 100 1014.7
20260504233037 11 30 0.0 8.0 0.00 0.00 0.00 100 1014.7
20260504232533 11 28 1.6 8.0 0.00 0.00 0.00 100 1014.7
20260504232034 11 51 1.6 14.5 0.00 0.00 0.00 100 1014.6
20260504231541 11 49 3.2 14.5 0.00 0.00 0.00 100 1014.6
20260504231033 11 30 3.2 14.5 0.00 0.00 0.00 100 1014.7
20260504230532 11 68 3.2 14.5 0.00 0.00 0.00 100 1014.7
20260504230043 11 41 1.6 9.7 0.00 0.00 0.00 100 1014.9
20260504225535 11 44 3.2 11.3 0.00 0.00 0.00 100 1014.8
20260504225034 11 0 3.2 11.3 0.00 0.00 0.00 100 1014.9
20260504224541 11 51 1.6 6.4 0.00 0.00 0.00 100 1015.0
20260504224034 11 0 1.6 6.4 0.00 0.00 0.00 100 1015.0
20260504223532 11 36 1.6 6.4 0.00 0.00 0.00 100 1015.0
20260504223038 11 0 0.0 6.4 0.00 0.00 0.00 100 1015.0
20260504222531 11 0 0.0 4.8 0.00 0.00 0.00 100 1014.9
20260504222031 11 0 0.0 4.8 0.00 0.00 0.00 100 1014.9